Satellite: CP6
Catalog number: 35004
Epoch time:      10006.62197943
Element set:    0184
Inclination:      040.4615 deg
RA of node:       100.0304 deg
Eccentricity:    0.0025191
Arg of perigee:   249.4536 deg
Mean anomaly:     110.3575 deg
Mean motion:   15.42235317 rev/day
Decay rate:      6.707e-05 rev/day^2
Epoch rev:           03573
Checksum:              259

Satellite: AEROCUB3
Catalog number: 35005
Epoch time:      10007.62214751
Element set:     184
Inclination:      040.4724 deg
RA of node:       094.6729 deg
Eccentricity:    0.0024638
Arg of perigee:   252.9432 deg
Mean anomaly:     106.8685 deg
Mean motion:   15.42302527 rev/day
Decay rate:     1.2294e-04 rev/day^2
Epoch rev:            3588
Checksum:              287

Satellite: DRAGNSAT
Catalog number: 35690
Epoch time:      10007.27582751
Element set:     180
Inclination:      051.6372 deg
RA of node:       324.9957 deg
Eccentricity:    0.0003061
Arg of perigee:   053.0524 deg
Mean anomaly:     307.0746 deg
Mean motion:   15.92762059 rev/day
Decay rate:     6.6361e-04 rev/day^2
Epoch rev:            2550
Checksum:              283

Satellite: POLLUX
Catalog number: 35693
Epoch time:      10007.24635725
Element set:     174
Inclination:      051.6386 deg
RA of node:       326.3256 deg
Eccentricity:    0.0000886
Arg of perigee:   024.3350 deg
Mean anomaly:     335.7924 deg
Mean motion:   15.90870264 rev/day
Decay rate:     5.3913e-04 rev/day^2
Epoch rev:            2545
Checksum:              294

Satellite: CASTOR
Catalog number: 35694
Epoch time:      10007.34505871
Element set:     151
Inclination:      051.6409 deg
RA of node:       328.5701 deg
Eccentricity:    0.0001592
Arg of perigee:   299.7377 deg
Mean anomaly:     060.3488 deg
Mean motion:   15.85072754 rev/day
Decay rate:     2.1167e-04 rev/day^2
Epoch rev:            2543
Checksum:              298

Satellite: METEOR-M
Catalog number: 35865
Epoch time:      10007.26457352
Element set:      96
Inclination:      098.7835 deg
RA of node:       062.0333 deg
Eccentricity:    0.0003172
Arg of perigee:   105.2948 deg
Mean anomaly:     254.8573 deg
Mean motion:   14.21828525 rev/day
Decay rate:       1.76e-06 rev/day^2
Epoch rev:            1585
Checksum:              298

Satellite: RS-38
Catalog number: 35869
Epoch time:      10007.60476772
Element set:      97
Inclination:      098.7822 deg
RA of node:       062.3882 deg
Eccentricity:    0.0005389
Arg of perigee:   105.9837 deg
Mean anomaly:     254.1905 deg
Mean motion:   14.21975483 rev/day
Decay rate:       1.76e-06 rev/day^2
Epoch rev:            1590
Checksum:              337

/EX



_______________________________________________
Via the Keps mailing list courtesy of AMSAT-NA
http://amsat.org/mailman/listinfo/keps

--- ViaMAIL!/WC v1.60d
 * Origin: Chowdanet (401-724-4410) telnet://chowdanet.com  (1:323/120)